Regional Weather Roundup
Issued by NWS

Home | Current Version | Previous Version | Graphics & Text | Print | Product List | Glossary Off
Versions: 1 2 3 4 5 6 7 8 9 10 11 12 13 14 15 16 17 18 19 20 21 22 23 24 25 26 27 28 29 30 31 32 33 34 35 36 37 38 39 40 41 42 43 44 45 46 47 48 49 50

000
ASUS43 KTOP 270759
RWRKS

WEATHER ROUNDUP FOR KANSAS
NATIONAL WEATHER SERVICE GOODLAND KS
200 AM CST SAT DEC 27 2014

NOTE:  "FAIR" INDICATES FEW OR NO CLOUDS BELOW 12,000 FEET WITH NO
SIGNIFICANT WEATHER AND/OR OBSTRUCTIONS TO VISIBILITY.

KSZ001>006-013>018-027>032-041>047-270900-
NORTHWEST KANSAS

CITY           SKY/WX    TMP DP  RH WIND       PRES   REMARKS
GOODLAND       CLEAR      7   5  91 W10       30.13F WCI  -8
HAYS           MOCLDY    19   9  63 NW15      30.17F WCI   5
HILL CITY      CLEAR     15  11  83 NW7       30.20R
RUSSELL        PTCLDY    19  16  88 NW10      30.16F WCI   7
$$

KSZ061>065-074>080-084>089-270900-
SOUTHWEST KANSAS

CITY           SKY/WX    TMP DP  RH WIND       PRES   REMARKS
DODGE CITY     PTCLDY    18  14  84 NW10      30.19R WCI   6
ELKHART          N/A     14   9  81 W3          N/A
GARDEN CITY    CLEAR     13  11  92 NW7       30.19R
GREAT BEND     PTCLDY    21  16  79 NW10      30.21R WCI  10
LIBERAL        PTCLDY    19  14  79 NW13      30.18F WCI   7
$$

KSZ066>073-081>083-090>101-270900-
SOUTHEAST KANSAS

CITY           SKY/WX    TMP DP  RH WIND       PRES   REMARKS
CHANUTE        CLOUDY    36  31  82 W14       30.14R WCI  27
COFFEYVILLE    MOCLDY    38  33  82 NW15G23   30.12S WCI  29
HUTCHINSON     CLOUDY    29  22  75 NW17      30.15F WCI  17
MEDICINE LODGE   N/A     28  23  81 NW16G25   30.17R WCI  16
NEWTON         CLOUDY    30  21  69 NW14G20   30.14S WCI  20
PARSONS        CLOUDY    37  33  85 NW15      30.12S WCI  28
WICHITA INTL   CLOUDY    32  24  72 NW17      30.15F WCI  21
WICHITA JABRA  CLOUDY    31  24  75 NW12G22   30.14S WCI  22
WICHITA MCCONL CLOUDY    32  27  80 NW14G20   30.14R WCI  22
WINFIELD       CLOUDY    34  27  75 NW15      30.16R WCI  24
$$

KSZ007>012-019>026-033>040-048>060-102>105-270900-
NORTHEAST KANSAS

CITY           SKY/WX    TMP DP  RH WIND       PRES   REMARKS
CONCORDIA      CLEAR     22  20  92 W12       30.16R WCI  10
EMPORIA        CLOUDY    32  29  88 W14       30.10R WCI  22
LAWRENCE       CLOUDY    34  31  88 W13       30.10R WCI  25
MANHATTAN      CLOUDY    30  25  81 NW8       30.15R
OLATHE IND     CLOUDY    35  33  92 W21       30.09R WCI  24
OLATHE EXE     CLOUDY    36  33  89 W16G24    30.07R WCI  26
SALINA         MOCLDY    27  22  81 NW17      30.18R WCI  14
TOPEKA BILLARD CLOUDY    35  32  88 W14       30.11R WCI  26
TOPEKA FORBES  CLOUDY    34  31  88 W13       30.09R WCI  25
$$



USA.gov is the U.S. government's official web portal to all federal, state and local government web resources and services.